Content
SEND FEEDBACK

Daily
Averages
Monthly
Summary
United Kingdom

ASTON, ENGLAND


Home > Europe > United Kingdom > England
Elevation: 364 feet     Latitude: 52 30N     Longitude: 001 54W

WEATHER
 
SELECT A DAY
Number of Records: 286,475;   Date Range: 7/1/96 - 11/26/14
 
SHARE

PRINT THIS DATA

[ ← Previous Day ]
WEATHER ALMANAC - OCTOBER 12, 2013
[ Next Day → ]
[ °C ]   °F
Weather ElementAverageHighLow
Temperature52.2 °F57.2 °F (2:20 pm)48.2 °F (12:50 am)
Dewpoint51.3 °F53.6 °F (11:20 am)48.2 °F (12:50 am)
Humidity96.8 %100 % (12:50 am)88 % (2:20 pm)
Barometer30.12 in30.21 in (12:50 am)30.04 in (10:20 pm)
Wind Speed11.3 mph16.1 mph (2:20 am)
Weather ElementAverage
Visibility3.9 mi
Wind DirectionESE (104.3 °)

Weather ElementTotal
Precipitation---
Heating Degree Days12.3 (Base 65)
Growing Degree Days2.7 (Base 50)
Averaged from 47 records on October 12, 2013
WEATHER CONDITIONS BREAKOUT
WIND DIRECTION BREAKOUT
WEATHER BY HOUR - OCTOBER 12, 2013
[ °C ]   °F
Local TimeTemperatureDewpointHumidityBarometerVisibilityWind DirectionWind SpeedGust SpeedPrecipitationEventsConditions
12:50 AM48.2 °F48.2 °F100 %30.21 in3.1 miNorth (360°)13.8 mphLight Drizzle
1:20 AM48.2 °F48.2 °F100 %30.21 inNorth (10°)15.0 mphDrizzle
1:50 AM48.2 °F48.2 °F100 %30.18 in3.1 miNorth (10°)15.0 mphLight Drizzle
2:20 AM48.2 °F48.2 °F100 %30.18 in3.1 miNorth (10°)16.1 mphLight Drizzle
2:50 AM50.0 °F48.2 °F94 %30.15 in2.5 miNNE (20°)16.1 mphDrizzle
3:20 AM50.0 °F48.2 °F94 %30.15 in3.1 miNorth (10°)15.0 mphLight Drizzle
3:50 AM50.0 °F48.2 °F94 %30.15 inNorth (10°)15.0 mphDrizzle
4:20 AM50.0 °F50.0 °F100 %30.15 inNNE (20°)15.0 mphDrizzle
4:50 AM50.0 °F50.0 °F100 %30.12 in2.5 miNNE (20°)15.0 mphDrizzle
5:20 AM50.0 °F50.0 °F100 %30.12 in4.3 miNNE (20°)15.0 mphRainLight Rain
5:50 AM51.8 °F50.0 °F94 %30.12 in3.7 miNNE (20°)16.1 mphOvercast
6:20 AM51.8 °F50.0 °F94 %30.12 in3.1 miNNE (20°)16.1 mphLight Drizzle
6:50 AM51.8 °F50.0 °F94 %30.12 inNorth (10°)13.8 mphLight Drizzle
7:20 AM51.8 °F50.0 °F94 %30.12 inNorth (10°)13.8 mphLight Drizzle
7:50 AM51.8 °F51.8 °F100 %30.12 in1.7 miNorth (10°)13.8 mphMostly Cloudy
8:20 AM51.8 °F51.8 °F100 %30.12 in1.8 miNorth (10°)12.7 mphMostly Cloudy
8:50 AM51.8 °F51.8 °F100 %30.12 inNNE (20°)13.8 mphRainLight Rain
9:20 AM51.8 °F51.8 °F100 %30.12 inNNE (20°)13.8 mphRainLight Rain
9:50 AM51.8 °F51.8 °F100 %30.15 inNNE (30°)12.7 mphRainLight Rain
10:20 AM53.6 °F51.8 °F94 %30.15 in5.6 miNNE (20°)12.7 mphRainLight Rain
10:50 AM53.6 °F51.8 °F94 %30.15 in6.2 miNNE (20°)11.5 mphMostly Cloudy
11:20 AM53.6 °F53.6 °F100 %30.15 in6.2 miNNE (20°)11.5 mphMostly Cloudy
11:50 AM53.6 °F53.6 °F100 %30.15 in5.6 miNNE (30°)10.4 mphRainLight Rain
12:20 PM55.4 °F53.6 °F94 %30.15 in5.6 miNNE (20°)10.4 mphMostly Cloudy
12:50 PM55.4 °F53.6 °F94 %30.15 in5.6 miNNE (20°)9.2 mphMostly Cloudy
1:20 PM55.4 °F53.6 °F94 %30.15 in6.2 miNNE (30°)9.2 mphMostly Cloudy
1:50 PM55.4 °F53.6 °F94 %30.12 in6.2 miNNE (20°)10.4 mphOvercast
2:20 PM57.2 °F53.6 °F88 %30.12 in6.2 miNorth (10°)9.2 mphOvercast
2:50 PM55.4 °F53.6 °F94 %30.12 in5.0 miNNE (20°)9.2 mphOvercast
3:20 PM55.4 °F53.6 °F94 %30.12 in3.7 miNorth (10°)4.6 mphRainRain
3:50 PM55.4 °F53.6 °F94 %30.09 inNNE (30°)4.6 mphRainLight Rain
4:20 PM55.4 °F53.6 °F94 %30.09 inNorth (360°)6.9 mphRainRain
4:50 PM55.4 °F53.6 °F94 %30.09 inNorth (350°)8.1 mphRainLight Rain
5:20 PM53.6 °F53.6 °F100 %30.09 in1.4 miNorth (360°)9.2 mphRainRain
5:50 PM51.8 °F51.8 °F100 %30.09 inNE (50°)6.9 mphRainRain
6:20 PM50.0 °F50.0 °F100 %30.09 inNorth (350°)4.6 mphRainRain
6:50 PM50.0 °F50.0 °F100 %30.09 inVariable2.3 mphRainRain
7:20 PM50.0 °F50.0 °F100 %30.06 inVariable2.3 mphRainRain
7:50 PM53.6 °F51.8 °F94 %30.06 inNorth (10°)11.5 mphRainLight Rain
8:20 PM53.6 °F51.8 °F94 %30.06 in3.1 miNorth (10°)10.4 mphRainRain
8:50 PM51.8 °F51.8 °F100 %30.06 inNorth (360°)10.4 mphRainLight Rain
9:20 PM51.8 °F51.8 °F100 %30.06 in2.2 miNorth (360°)9.2 mphRainLight Rain
9:50 PM51.8 °F51.8 °F100 %30.06 in2.2 miNorth (360°)11.5 mphRainLight Rain
10:20 PM51.8 °F51.8 °F100 %30.04 inNorth (360°)10.4 mphRainLight Rain
10:50 PM51.8 °F50.0 °F94 %30.04 inNorth (360°)10.4 mphRainLight Rain
11:20 PM51.8 °F50.0 °F94 %30.04 in1.9 miNorth (360°)12.7 mphRainLight Rain
11:50 PM51.8 °F50.0 °F94 %30.04 inNorth (360°)11.5 mphRainLight Rain
Hourly data recorded from EGBB, located miles away from Aston, England







STORIES FROM OUR PARTNERS